NORTHEAST SUFFOLK  -  Special Weather Statement Special Weather Statement        NORTHERN NASSAU  -  Special Weather Statement Special Weather Statement        NORTHWEST SUFFOLK  -  Special Weather Statement Special Weather Statement        SOUTHEAST SUFFOLK  -  Special Weather Statement Special Weather Statement        SOUTHERN NASSAU  -  Special Weather Statement Special Weather Statement        SOUTHWEST SUFFOLK  -  Special Weather Statement Special Weather Statement      

Active alerts

Northern Nassau
  Details for Northern Nassau Special Weather Statement
Southern Nassau
  Details for Southern Nassau Special Weather Statement
Northwest Suffolk
  Details for Northwest Suffolk Special Weather Statement
Southwest Suffolk
  Details for Southwest Suffolk Special Weather Statement
Northeast Suffolk
  Details for Northeast Suffolk Special Weather Statement
Southeast Suffolk
  Details for Southeast Suffolk Special Weather Statement


WXM80 ListenWXM80 Stop

You find our weather info also at:

UK Metoffice

WeatherCloud

Weather Underground

Northeastern Weather Network

AWEKAS

Citizen Weather Observer Program (CWOP)

HAMweather, WeatherForYou, PWS Weather


Weather Underground History page Text

Daily Summary for November 25, 2017 Units:  Both    English   Metric
« Previous Day
Next Day »
Daily Weekly Monthly Yearly Custom
  High: Low: Average:
Temperature: 57.7 °F /  14.3 °C 37.1 °F /  2.8 °C 47.5 °F /  8.6 °C
Dew Point: 44.4 °F /  6.9 °C 33.2 °F /  0.7 °C 38.5 °F /  3.6 °C
Humidity: 90 % 49 % 72 %
Wind Speed: 8.4 mph /  13.5 km/h - 1.9 mph /  3.1 km/h
Wind Gust: 17.3 mph /  27.8 km/h - -
Wind:- - SW
Pressure: 29.95 in /  1014.1 hPa 29.68 in /  1005 hPa -
Precipitation: 0.00 in /  0 mm    
Historical Graphs
 
 
Tabular Data for November 25, 2017
Time Temperature Dew Point Pressure Wind Wind Speed Wind Gust Humidity Rainfall Rate (Hourly)
00:03 41.3 °F /  5.2 °C 35.0 °F /  1.7 °C 29.95 in /  1014.1 hPa SW 0.9 mph /  1.4 km/h 3.5 mph /  5.6 km/h 78 % 0.00 in /  0 mm
00:08 41.3 °F /  5.2 °C 34.6 °F /  1.4 °C 29.94 in /  1013.8 hPa WSW 1.8 mph /  2.9 km/h 3.5 mph /  5.6 km/h 77 % 0.00 in /  0 mm
00:13 41.3 °F /  5.2 °C 34.3 °F /  1.3 °C 29.94 in /  1013.8 hPa SW 1.0 mph /  1.6 km/h 3.5 mph /  5.6 km/h 76 % 0.00 in /  0 mm
00:19 41.3 °F /  5.2 °C 34.3 °F /  1.3 °C 29.94 in /  1013.8 hPa WSW 0.9 mph /  1.4 km/h 2.0 mph /  3.2 km/h 76 % 0.00 in /  0 mm
00:24 41.3 °F /  5.2 °C 34.3 °F /  1.3 °C 29.94 in /  1013.8 hPa WSW 2.2 mph /  3.5 km/h 6.9 mph /  11.1 km/h 76 % 0.00 in /  0 mm
00:29 41.3 °F /  5.2 °C 34.3 °F /  1.3 °C 29.94 in /  1013.8 hPa WSW 0.9 mph /  1.4 km/h 3.5 mph /  5.6 km/h 76 % 0.00 in /  0 mm
00:34 41.3 °F /  5.2 °C 34.3 °F /  1.3 °C 29.94 in /  1013.8 hPa WSW 0.2 mph /  0.3 km/h 3.5 mph /  5.6 km/h 76 % 0.00 in /  0 mm
00:39 41.3 °F /  5.2 °C 34.3 °F /  1.3 °C 29.94 in /  1013.8 hPa WSW 1.2 mph /  1.9 km/h 3.5 mph /  5.6 km/h 76 % 0.00 in /  0 mm
00:44 41.3 °F /  5.2 °C 34.0 °F /  1.1 °C 29.95 in /  1014.1 hPa SW 1.5 mph /  2.4 km/h 2.3 mph /  3.7 km/h 75 % 0.00 in /  0 mm
00:49 41.3 °F /  5.2 °C 34.3 °F /  1.3 °C 29.94 in /  1013.8 hPa Calm   1.2 mph /  1.9 km/h 76 % 0.00 in /  0 mm
00:54 41.3 °F /  5.2 °C 34.0 °F /  1.1 °C 29.94 in /  1013.8 hPa SW 2.2 mph /  3.5 km/h 4.6 mph /  7.4 km/h 75 % 0.00 in /  0 mm
00:59 41.2 °F /  5.1 °C 34.2 °F /  1.2 °C 29.94 in /  1013.8 hPa WSW 2.6 mph /  4.2 km/h 5.8 mph /  9.3 km/h 76 % 0.00 in /  0 mm
01:04 41.1 °F /  5.1 °C 34.1 °F /  1.2 °C 29.94 in /  1013.8 hPa WSW 1.2 mph /  1.9 km/h 3.0 mph /  4.8 km/h 76 % 0.00 in /  0 mm
01:09 41.1 °F /  5.1 °C 34.1 °F /  1.2 °C 29.94 in /  1013.8 hPa SW 1.1 mph /  1.8 km/h 2.3 mph /  3.7 km/h 76 % 0.00 in /  0 mm
01:14 41.1 °F /  5.1 °C 34.1 °F /  1.2 °C 29.94 in /  1013.8 hPa SW 1.8 mph /  2.9 km/h 4.6 mph /  7.4 km/h 76 % 0.00 in /  0 mm
01:19 41.0 °F /  5 °C 34.3 °F /  1.3 °C 29.94 in /  1013.8 hPa SW 1.6 mph /  2.6 km/h 3.5 mph /  5.6 km/h 77 % 0.00 in /  0 mm
01:24 40.9 °F /  4.9 °C 34.2 °F /  1.2 °C 29.93 in /  1013.4 hPa SW 1.0 mph /  1.6 km/h 3.5 mph /  5.6 km/h 77 % 0.00 in /  0 mm
01:28 40.9 °F /  4.9 °C 34.2 °F /  1.2 °C 29.93 in /  1013.4 hPa SSW 1.5 mph /  2.4 km/h 6.9 mph /  11.1 km/h 77 % 0.00 in /  0 mm
01:33 40.8 °F /  4.9 °C 34.1 °F /  1.2 °C 29.93 in /  1013.4 hPa SW 2.5 mph /  4 km/h 3.5 mph /  5.6 km/h 77 % 0.00 in /  0 mm
01:38 40.8 °F /  4.9 °C 34.1 °F /  1.2 °C 29.93 in /  1013.4 hPa West 2.0 mph /  3.2 km/h 4.6 mph /  7.4 km/h 77 % 0.00 in /  0 mm
01:43 40.7 °F /  4.8 °C 34.4 °F /  1.3 °C 29.93 in /  1013.4 hPa WSW 2.2 mph /  3.5 km/h 3.5 mph /  5.6 km/h 78 % 0.00 in /  0 mm
01:48 40.7 °F /  4.8 °C 34.4 °F /  1.3 °C 29.93 in /  1013.4 hPa SW 1.8 mph /  2.9 km/h 3.5 mph /  5.6 km/h 78 % 0.00 in /  0 mm
01:53 40.7 °F /  4.8 °C 34.4 °F /  1.3 °C 29.93 in /  1013.4 hPa SW 1.0 mph /  1.6 km/h 3.5 mph /  5.6 km/h 78 % 0.00 in /  0 mm
01:58 40.7 °F /  4.8 °C 34.4 °F /  1.3 °C 29.93 in /  1013.4 hPa SW 0.4 mph /  0.6 km/h 2.3 mph /  3.7 km/h 78 % 0.00 in /  0 mm
02:03 40.7 °F /  4.8 °C 34.4 °F /  1.3 °C 29.93 in /  1013.4 hPa SW 1.8 mph /  2.9 km/h 3.5 mph /  5.6 km/h 78 % 0.00 in /  0 mm
02:08 40.7 °F /  4.8 °C 34.4 °F /  1.3 °C 29.93 in /  1013.4 hPa SW 1.6 mph /  2.6 km/h 3.5 mph /  5.6 km/h 78 % 0.00 in /  0 mm
02:13 40.7 °F /  4.8 °C 34.4 °F /  1.3 °C 29.93 in /  1013.4 hPa Calm     78 % 0.00 in /  0 mm
02:18 40.6 °F /  4.8 °C 34.3 °F /  1.3 °C 29.93 in /  1013.4 hPa Calm   1.2 mph /  1.9 km/h 78 % 0.00 in /  0 mm
02:23 40.6 °F /  4.8 °C 34.3 °F /  1.3 °C 29.93 in /  1013.4 hPa WSW 0.1 mph /  0.2 km/h 1.2 mph /  1.9 km/h 78 % 0.00 in /  0 mm
02:28 40.5 °F /  4.7 °C 34.5 °F /  1.4 °C 29.93 in /  1013.4 hPa SW 2.0 mph /  3.2 km/h 3.5 mph /  5.6 km/h 79 % 0.00 in /  0 mm
02:34 40.4 °F /  4.7 °C 34.4 °F /  1.3 °C 29.92 in /  1013.1 hPa WSW 1.2 mph /  1.9 km/h 2.3 mph /  3.7 km/h 79 % 0.00 in /  0 mm
02:39 40.3 °F /  4.6 °C 34.3 °F /  1.3 °C 29.92 in /  1013.1 hPa SW 0.5 mph /  0.8 km/h 1.2 mph /  1.9 km/h 79 % 0.00 in /  0 mm
02:44 40.2 °F /  4.6 °C 34.2 °F /  1.2 °C 29.92 in /  1013.1 hPa Calm   1.0 mph /  1.6 km/h 79 % 0.00 in /  0 mm
02:49 40.2 °F /  4.6 °C 34.5 °F /  1.4 °C 29.92 in /  1013.1 hPa WSW 0.2 mph /  0.3 km/h 2.3 mph /  3.7 km/h 80 % 0.00 in /  0 mm
02:54 40.1 °F /  4.5 °C 34.4 °F /  1.3 °C 29.92 in /  1013.1 hPa WSW 0.7 mph /  1.1 km/h 3.5 mph /  5.6 km/h 80 % 0.00 in /  0 mm
02:59 40.0 °F /  4.4 °C 34.3 °F /  1.3 °C 29.92 in /  1013.1 hPa Calm     80 % 0.00 in /  0 mm
03:04 40.0 °F /  4.4 °C 34.3 °F /  1.3 °C 29.91 in /  1012.8 hPa Calm     80 % 0.00 in /  0 mm
03:09 39.9 °F /  4.4 °C 34.2 °F /  1.2 °C 29.91 in /  1012.8 hPa Calm   2.3 mph /  3.7 km/h 80 % 0.00 in /  0 mm
03:14 39.8 °F /  4.3 °C 34.1 °F /  1.2 °C 29.91 in /  1012.8 hPa Calm     80 % 0.00 in /  0 mm
03:19 39.6 °F /  4.2 °C 33.9 °F /  1.1 °C 29.91 in /  1012.8 hPa Calm     80 % 0.00 in /  0 mm
03:24 39.5 °F /  4.2 °C 33.8 °F /  1 °C 29.90 in /  1012.4 hPa Calm   1.0 mph /  1.6 km/h 80 % 0.00 in /  0 mm
03:29 39.4 °F /  4.1 °C 34.1 °F /  1.2 °C 29.90 in /  1012.4 hPa SW 0.3 mph /  0.5 km/h 2.3 mph /  3.7 km/h 81 % 0.00 in /  0 mm
03:34 39.3 °F /  4.1 °C 34.0 °F /  1.1 °C 29.90 in /  1012.4 hPa Calm   2.3 mph /  3.7 km/h 81 % 0.00 in /  0 mm
03:39 39.1 °F /  3.9 °C 34.1 °F /  1.2 °C 29.90 in /  1012.4 hPa Calm   1.2 mph /  1.9 km/h 82 % 0.00 in /  0 mm
03:44 39.0 °F /  3.9 °C 34.0 °F /  1.1 °C 29.90 in /  1012.4 hPa Calm     82 % 0.00 in /  0 mm
03:49 38.8 °F /  3.8 °C 33.8 °F /  1 °C 29.90 in /  1012.4 hPa Calm     82 % 0.00 in /  0 mm
03:54 38.7 °F /  3.7 °C 33.7 °F /  0.9 °C 29.90 in /  1012.4 hPa WSW 0.2 mph /  0.3 km/h 1.2 mph /  1.9 km/h 82 % 0.00 in /  0 mm
04:04 38.5 °F /  3.6 °C 33.8 °F /  1 °C 29.89 in /  1012.1 hPa Calm     83 % 0.00 in /  0 mm
04:09 38.4 °F /  3.6 °C 33.7 °F /  0.9 °C 29.89 in /  1012.1 hPa Calm     83 % 0.00 in /  0 mm
04:14 38.2 °F /  3.4 °C 33.5 °F /  0.8 °C 29.89 in /  1012.1 hPa WSW 0.3 mph /  0.5 km/h 1.2 mph /  1.9 km/h 83 % 0.00 in /  0 mm
04:19 38.1 °F /  3.4 °C 33.7 °F /  0.9 °C 29.89 in /  1012.1 hPa Calm     84 % 0.00 in /  0 mm
04:24 38.0 °F /  3.3 °C 33.6 °F /  0.9 °C 29.89 in /  1012.1 hPa Calm     84 % 0.00 in /  0 mm
04:29 37.9 °F /  3.3 °C 33.5 °F /  0.8 °C 29.89 in /  1012.1 hPa WSW 0.9 mph /  1.4 km/h 2.3 mph /  3.7 km/h 84 % 0.00 in /  0 mm
04:34 37.8 °F /  3.2 °C 33.4 °F /  0.8 °C 29.89 in /  1012.1 hPa Calm   1.2 mph /  1.9 km/h 84 % 0.00 in /  0 mm
04:39 37.7 °F /  3.2 °C 33.3 °F /  0.7 °C 29.89 in /  1012.1 hPa Calm     84 % 0.00 in /  0 mm
04:44 37.6 °F /  3.1 °C 33.2 °F /  0.7 °C 29.88 in /  1011.7 hPa Calm     84 % 0.00 in /  0 mm
04:49 37.5 °F /  3.1 °C 33.4 °F /  0.8 °C 29.88 in /  1011.7 hPa Calm     85 % 0.00 in /  0 mm
04:54 37.4 °F /  3 °C 33.3 °F /  0.7 °C 29.88 in /  1011.7 hPa SW 1.1 mph /  1.8 km/h 3.5 mph /  5.6 km/h 85 % 0.00 in /  0 mm
04:59 37.3 °F /  2.9 °C 33.5 °F /  0.8 °C 29.88 in /  1011.7 hPa SSW 0.1 mph /  0.2 km/h 1.0 mph /  1.6 km/h 86 % 0.00 in /  0 mm
05:04 37.3 °F /  2.9 °C 33.5 °F /  0.8 °C 29.88 in /  1011.7 hPa WSW 1.4 mph /  2.3 km/h 3.0 mph /  4.8 km/h 86 % 0.00 in /  0 mm
05:14 37.2 °F /  2.9 °C 34.0 °F /  1.1 °C 29.88 in /  1011.7 hPa SW 1.2 mph /  1.9 km/h 3.5 mph /  5.6 km/h 88 % 0.00 in /  0 mm
05:19 37.3 °F /  2.9 °C 34.4 °F /  1.3 °C 29.87 in /  1011.4 hPa SW 1.7 mph /  2.7 km/h 3.5 mph /  5.6 km/h 89 % 0.00 in /  0 mm
05:24 37.3 °F /  2.9 °C 34.4 °F /  1.3 °C 29.87 in /  1011.4 hPa WSW 1.2 mph /  1.9 km/h 3.5 mph /  5.6 km/h 89 % 0.00 in /  0 mm
05:29 37.4 °F /  3 °C 34.5 °F /  1.4 °C 29.87 in /  1011.4 hPa SW 1.1 mph /  1.8 km/h 3.5 mph /  5.6 km/h 89 % 0.00 in /  0 mm
05:34 37.5 °F /  3.1 °C 34.8 °F /  1.6 °C 29.87 in /  1011.4 hPa SW 1.9 mph /  3.1 km/h 3.0 mph /  4.8 km/h 90 % 0.00 in /  0 mm
05:39 37.5 °F /  3.1 °C 34.8 °F /  1.6 °C 29.87 in /  1011.4 hPa SW 0.6 mph /  1 km/h 1.2 mph /  1.9 km/h 90 % 0.00 in /  0 mm
05:44 37.7 °F /  3.2 °C 35.0 °F /  1.7 °C 29.87 in /  1011.4 hPa SW 1.1 mph /  1.8 km/h 1.2 mph /  1.9 km/h 90 % 0.00 in /  0 mm
05:49 37.8 °F /  3.2 °C 35.1 °F /  1.7 °C 29.87 in /  1011.4 hPa SW 0.9 mph /  1.4 km/h 2.3 mph /  3.7 km/h 90 % 0.00 in /  0 mm
05:54 37.9 °F /  3.3 °C 35.2 °F /  1.8 °C 29.87 in /  1011.4 hPa SW 0.1 mph /  0.2 km/h 1.2 mph /  1.9 km/h 90 % 0.00 in /  0 mm
05:59 38.0 °F /  3.3 °C 35.3 °F /  1.8 °C 29.87 in /  1011.4 hPa Calm   1.2 mph /  1.9 km/h 90 % 0.00 in /  0 mm
06:04 38.0 °F /  3.3 °C 35.3 °F /  1.8 °C 29.87 in /  1011.4 hPa Calm   1.2 mph /  1.9 km/h 90 % 0.00 in /  0 mm
06:09 38.1 °F /  3.4 °C 35.4 °F /  1.9 °C 29.87 in /  1011.4 hPa SW 0.5 mph /  0.8 km/h 1.2 mph /  1.9 km/h 90 % 0.00 in /  0 mm
06:14 38.1 °F /  3.4 °C 35.4 °F /  1.9 °C 29.87 in /  1011.4 hPa SW 0.2 mph /  0.3 km/h   90 % 0.00 in /  0 mm
06:19 38.1 °F /  3.4 °C 35.4 °F /  1.9 °C 29.86 in /  1011.1 hPa Calm     90 % 0.00 in /  0 mm
06:25 38.1 °F /  3.4 °C 35.4 °F /  1.9 °C 29.86 in /  1011.1 hPa Calm     90 % 0.00 in /  0 mm
06:30 38.0 °F /  3.3 °C 35.0 °F /  1.7 °C 29.86 in /  1011.1 hPa Calm     89 % 0.00 in /  0 mm
06:35 38.0 °F /  3.3 °C 35.0 °F /  1.7 °C 29.86 in /  1011.1 hPa Calm     89 % 0.00 in /  0 mm
06:40 37.9 °F /  3.3 °C 34.9 °F /  1.6 °C 29.86 in /  1011.1 hPa Calm     89 % 0.00 in /  0 mm
06:45 37.8 °F /  3.2 °C 34.6 °F /  1.4 °C 29.86 in /  1011.1 hPa Calm     88 % 0.00 in /  0 mm
06:50 37.7 °F /  3.2 °C 34.5 °F /  1.4 °C 29.86 in /  1011.1 hPa Calm     88 % 0.00 in /  0 mm
06:52 37.6 °F /  3.1 °C 34.4 °F /  1.3 °C 29.86 in /  1011.1 hPa Calm     88 % 0.00 in /  0 mm
06:58 37.5 °F /  3.1 °C 34.3 °F /  1.3 °C 29.86 in /  1011.1 hPa SW 0.5 mph /  0.8 km/h 2.3 mph /  3.7 km/h 88 % 0.00 in /  0 mm
07:03 37.4 °F /  3 °C 34.2 °F /  1.2 °C 29.86 in /  1011.1 hPa SW 0.4 mph /  0.6 km/h 2.3 mph /  3.7 km/h 88 % 0.00 in /  0 mm
07:08 37.3 °F /  2.9 °C 34.1 °F /  1.2 °C 29.86 in /  1011.1 hPa SW 0.3 mph /  0.5 km/h 1.2 mph /  1.9 km/h 88 % 0.00 in /  0 mm
07:13 37.2 °F /  2.9 °C 34.0 °F /  1.1 °C 29.86 in /  1011.1 hPa Calm     88 % 0.00 in /  0 mm
07:18 37.2 °F /  2.9 °C 34.0 °F /  1.1 °C 29.85 in /  1010.7 hPa SW 0.9 mph /  1.4 km/h 2.3 mph /  3.7 km/h 88 % 0.00 in /  0 mm
07:23 37.1 °F /  2.8 °C 34.2 °F /  1.2 °C 29.85 in /  1010.7 hPa Calm     89 % 0.00 in /  0 mm
07:28 37.2 °F /  2.9 °C 34.3 °F /  1.3 °C 29.86 in /  1011.1 hPa SW 1.4 mph /  2.3 km/h 3.5 mph /  5.6 km/h 89 % 0.00 in /  0 mm
07:33 37.3 °F /  2.9 °C 34.4 °F /  1.3 °C 29.86 in /  1011.1 hPa West 1.7 mph /  2.7 km/h 3.5 mph /  5.6 km/h 89 % 0.00 in /  0 mm
07:38 37.4 °F /  3 °C 34.7 °F /  1.5 °C 29.85 in /  1010.7 hPa WSW 0.4 mph /  0.6 km/h 2.3 mph /  3.7 km/h 90 % 0.00 in /  0 mm
07:43 37.6 °F /  3.1 °C 34.9 °F /  1.6 °C 29.85 in /  1010.7 hPa SSW 2.1 mph /  3.4 km/h 4.6 mph /  7.4 km/h 90 % 0.00 in /  0 mm
07:48 37.9 °F /  3.3 °C 35.2 °F /  1.8 °C 29.85 in /  1010.7 hPa SW 1.4 mph /  2.3 km/h 3.0 mph /  4.8 km/h 90 % 0.00 in /  0 mm
07:53 38.3 °F /  3.5 °C 35.6 °F /  2 °C 29.85 in /  1010.7 hPa SW 1.5 mph /  2.4 km/h 4.6 mph /  7.4 km/h 90 % 0.00 in /  0 mm
07:58 38.7 °F /  3.7 °C 36.0 °F /  2.2 °C 29.85 in /  1010.7 hPa SW 1.9 mph /  3.1 km/h 2.3 mph /  3.7 km/h 90 % 0.00 in /  0 mm
08:03 39.1 °F /  3.9 °C 36.4 °F /  2.4 °C 29.85 in /  1010.7 hPa SSW 1.8 mph /  2.9 km/h 4.6 mph /  7.4 km/h 90 % 0.00 in /  0 mm
08:08 39.5 °F /  4.2 °C 36.5 °F /  2.5 °C 29.85 in /  1010.7 hPa SSW 1.4 mph /  2.3 km/h 3.5 mph /  5.6 km/h 89 % 0.00 in /  0 mm
08:13 40.0 °F /  4.4 °C 36.7 °F /  2.6 °C 29.85 in /  1010.7 hPa SW 4.1 mph /  6.6 km/h 6.9 mph /  11.1 km/h 88 % 0.00 in /  0 mm
08:19 40.5 °F /  4.7 °C 36.9 °F /  2.7 °C 29.85 in /  1010.7 hPa SW 5.1 mph /  8.2 km/h 5.8 mph /  9.3 km/h 87 % 0.00 in /  0 mm
08:24 41.0 °F /  5 °C 37.1 °F /  2.8 °C 29.85 in /  1010.7 hPa WSW 5.7 mph /  9.2 km/h 11.5 mph /  18.5 km/h 86 % 0.00 in /  0 mm
08:29 41.5 °F /  5.3 °C 37.0 °F /  2.8 °C 29.85 in /  1010.7 hPa SW 3.6 mph /  5.8 km/h 5.8 mph /  9.3 km/h 84 % 0.00 in /  0 mm
08:34 41.9 °F /  5.5 °C 37.1 °F /  2.8 °C 29.84 in /  1010.4 hPa West 3.7 mph /  6 km/h 5.8 mph /  9.3 km/h 83 % 0.00 in /  0 mm
08:39 42.4 °F /  5.8 °C 37.6 °F /  3.1 °C 29.84 in /  1010.4 hPa West 4.7 mph /  7.6 km/h 8.1 mph /  13 km/h 83 % 0.00 in /  0 mm
08:44 42.9 °F /  6.1 °C 37.8 °F /  3.2 °C 29.84 in /  1010.4 hPa SW 2.9 mph /  4.7 km/h 5.8 mph /  9.3 km/h 82 % 0.00 in /  0 mm
08:49 43.3 °F /  6.3 °C 38.2 °F /  3.4 °C 29.84 in /  1010.4 hPa SW 2.3 mph /  3.7 km/h 3.5 mph /  5.6 km/h 82 % 0.00 in /  0 mm
08:54 43.8 °F /  6.6 °C 38.7 °F /  3.7 °C 29.84 in /  1010.4 hPa SW 0.7 mph /  1.1 km/h 6.9 mph /  11.1 km/h 82 % 0.00 in /  0 mm
08:59 44.5 °F /  6.9 °C 39.0 °F /  3.9 °C 29.84 in /  1010.4 hPa West 3.6 mph /  5.8 km/h 7.0 mph /  11.3 km/h 81 % 0.00 in /  0 mm
09:04 45.3 °F /  7.4 °C 39.8 °F /  4.3 °C 29.84 in /  1010.4 hPa SW 3.0 mph /  4.8 km/h 5.8 mph /  9.3 km/h 81 % 0.00 in /  0 mm
09:09 46.1 °F /  7.8 °C 40.3 °F /  4.6 °C 29.83 in /  1010 hPa SW 4.5 mph /  7.2 km/h 6.0 mph /  9.7 km/h 80 % 0.00 in /  0 mm
09:14 47.1 °F /  8.4 °C 40.6 °F /  4.8 °C 29.83 in /  1010 hPa WSW 4.6 mph /  7.4 km/h 6.9 mph /  11.1 km/h 78 % 0.00 in /  0 mm
09:19 47.9 °F /  8.8 °C 41.0 °F /  5 °C 29.83 in /  1010 hPa WSW 6.7 mph /  10.8 km/h 9.2 mph /  14.8 km/h 77 % 0.00 in /  0 mm
09:24 48.7 °F /  9.3 °C 41.5 °F /  5.3 °C 29.84 in /  1010.4 hPa SW 3.6 mph /  5.8 km/h 8.1 mph /  13 km/h 76 % 0.00 in /  0 mm
09:29 49.3 °F /  9.6 °C 42.1 °F /  5.6 °C 29.84 in /  1010.4 hPa SSW 3.8 mph /  6.1 km/h 6.0 mph /  9.7 km/h 76 % 0.00 in /  0 mm
09:34 50.1 °F /  10.1 °C 42.1 °F /  5.6 °C 29.84 in /  1010.4 hPa WSW 2.2 mph /  3.5 km/h 3.5 mph /  5.6 km/h 74 % 0.00 in /  0 mm
09:39 50.8 °F /  10.4 °C 42.1 °F /  5.6 °C 29.83 in /  1010 hPa WSW 6.5 mph /  10.5 km/h 10.0 mph /  16.1 km/h 72 % 0.00 in /  0 mm
09:44 51.2 °F /  10.7 °C 41.4 °F /  5.2 °C 29.83 in /  1010 hPa SSW 3.1 mph /  5 km/h 6.0 mph /  9.7 km/h 69 % 0.00 in /  0 mm
09:49 51.6 °F /  10.9 °C 41.4 °F /  5.2 °C 29.83 in /  1010 hPa SSW 5.3 mph /  8.5 km/h 11.5 mph /  18.5 km/h 68 % 0.00 in /  0 mm
09:54 52.0 °F /  11.1 °C 41.4 °F /  5.2 °C 29.83 in /  1010 hPa WSW 2.2 mph /  3.5 km/h 6.0 mph /  9.7 km/h 67 % 0.00 in /  0 mm
09:59 52.4 °F /  11.3 °C 41.4 °F /  5.2 °C 29.83 in /  1010 hPa SSW 4.5 mph /  7.2 km/h 8.1 mph /  13 km/h 66 % 0.00 in /  0 mm
10:04 52.8 °F /  11.6 °C 41.0 °F /  5 °C 29.82 in /  1009.7 hPa SW 4.9 mph /  7.9 km/h 6.0 mph /  9.7 km/h 64 % 0.00 in /  0 mm
10:10 53.2 °F /  11.8 °C 40.9 °F /  4.9 °C 29.82 in /  1009.7 hPa SW 2.8 mph /  4.5 km/h 6.0 mph /  9.7 km/h 63 % 0.00 in /  0 mm
10:15 53.4 °F /  11.9 °C 41.1 °F /  5.1 °C 29.81 in /  1009.4 hPa SW 0.3 mph /  0.5 km/h 3.5 mph /  5.6 km/h 63 % 0.00 in /  0 mm
10:20 53.6 °F /  12 °C 40.9 °F /  4.9 °C 29.81 in /  1009.4 hPa South 2.0 mph /  3.2 km/h 9.2 mph /  14.8 km/h 62 % 0.00 in /  0 mm
10:25 53.7 °F /  12.1 °C 40.6 °F /  4.8 °C 29.81 in /  1009.4 hPa WSW 2.7 mph /  4.3 km/h 5.8 mph /  9.3 km/h 61 % 0.00 in /  0 mm
10:30 53.9 °F /  12.2 °C 40.8 °F /  4.9 °C 29.81 in /  1009.4 hPa SSW 3.1 mph /  5 km/h 9.0 mph /  14.5 km/h 61 % 0.00 in /  0 mm
10:35 54.1 °F /  12.3 °C 39.6 °F /  4.2 °C 29.81 in /  1009.4 hPa WSW 3.6 mph /  5.8 km/h 5.8 mph /  9.3 km/h 58 % 0.00 in /  0 mm
10:40 54.3 °F /  12.4 °C 39.4 °F /  4.1 °C 29.80 in /  1009 hPa WSW 4.1 mph /  6.6 km/h 9.0 mph /  14.5 km/h 57 % 0.00 in /  0 mm
10:45 54.5 °F /  12.5 °C 39.6 °F /  4.2 °C 29.80 in /  1009 hPa South 2.9 mph /  4.7 km/h 5.8 mph /  9.3 km/h 57 % 0.00 in /  0 mm
10:50 54.5 °F /  12.5 °C 39.1 °F /  3.9 °C 29.80 in /  1009 hPa SSW 4.7 mph /  7.6 km/h 9.2 mph /  14.8 km/h 56 % 0.00 in /  0 mm
10:55 54.3 °F /  12.4 °C 38.0 °F /  3.3 °C 29.80 in /  1009 hPa SW 6.3 mph /  10.1 km/h 10.4 mph /  16.7 km/h 54 % 0.00 in /  0 mm
11:00 54.2 °F /  12.3 °C 36.5 °F /  2.5 °C 29.79 in /  1008.7 hPa SSW 6.9 mph /  11.1 km/h 16.1 mph /  25.9 km/h 51 % 0.00 in /  0 mm
11:05 53.9 °F /  12.2 °C 36.7 °F /  2.6 °C 29.79 in /  1008.7 hPa SSW 5.8 mph /  9.3 km/h 11.5 mph /  18.5 km/h 52 % 0.00 in /  0 mm
11:10 53.7 °F /  12.1 °C 37.0 °F /  2.8 °C 29.78 in /  1008.4 hPa SSW 8.4 mph /  13.5 km/h 13.0 mph /  20.9 km/h 53 % 0.00 in /  0 mm
11:15 53.6 °F /  12 °C 37.3 °F /  2.9 °C 29.78 in /  1008.4 hPa SSW 3.8 mph /  6.1 km/h 6.9 mph /  11.1 km/h 54 % 0.00 in /  0 mm
11:20 53.6 °F /  12 °C 38.3 °F /  3.5 °C 29.78 in /  1008.4 hPa WSW 4.7 mph /  7.6 km/h 6.9 mph /  11.1 km/h 56 % 0.00 in /  0 mm
11:25 53.7 °F /  12.1 °C 37.9 °F /  3.3 °C 29.78 in /  1008.4 hPa SW 5.5 mph /  8.9 km/h 6.9 mph /  11.1 km/h 55 % 0.00 in /  0 mm
11:31 53.8 °F /  12.1 °C 38.0 °F /  3.3 °C 29.77 in /  1008 hPa SSW 3.8 mph /  6.1 km/h 9.2 mph /  14.8 km/h 55 % 0.00 in /  0 mm
11:35 53.9 °F /  12.2 °C 37.6 °F /  3.1 °C 29.76 in /  1007.7 hPa SSW 5.0 mph /  8 km/h 6.9 mph /  11.1 km/h 54 % 0.00 in /  0 mm
11:40 54.0 °F /  12.2 °C 37.7 °F /  3.2 °C 29.76 in /  1007.7 hPa South 3.2 mph /  5.1 km/h 6.9 mph /  11.1 km/h 54 % 0.00 in /  0 mm
11:45 54.1 °F /  12.3 °C 37.3 °F /  2.9 °C 29.76 in /  1007.7 hPa SSW 4.7 mph /  7.6 km/h 10.4 mph /  16.7 km/h 53 % 0.00 in /  0 mm
11:50 54.1 °F /  12.3 °C 36.4 °F /  2.4 °C 29.76 in /  1007.7 hPa SSW 5.4 mph /  8.7 km/h 9.2 mph /  14.8 km/h 51 % 0.00 in /  0 mm
11:55 54.2 °F /  12.3 °C 36.5 °F /  2.5 °C 29.76 in /  1007.7 hPa SW 5.5 mph /  8.9 km/h 8.0 mph /  12.9 km/h 51 % 0.00 in /  0 mm
12:00 54.2 °F /  12.3 °C 36.5 °F /  2.5 °C 29.76 in /  1007.7 hPa SW 5.6 mph /  9 km/h 8.1 mph /  13 km/h 51 % 0.00 in /  0 mm
12:06 54.4 °F /  12.4 °C 36.6 °F /  2.6 °C 29.75 in /  1007.3 hPa SW 7.0 mph /  11.3 km/h 12.0 mph /  19.3 km/h 51 % 0.00 in /  0 mm
12:11 54.4 °F /  12.4 °C 35.6 °F /  2 °C 29.75 in /  1007.3 hPa SSW 3.6 mph /  5.8 km/h 8.1 mph /  13 km/h 49 % 0.00 in /  0 mm
12:16 54.6 °F /  12.6 °C 36.8 °F /  2.7 °C 29.75 in /  1007.3 hPa SSW 6.0 mph /  9.7 km/h 9.0 mph /  14.5 km/h 51 % 0.00 in /  0 mm
12:21 54.7 °F /  12.6 °C 36.9 °F /  2.7 °C 29.75 in /  1007.3 hPa SW 3.0 mph /  4.8 km/h 6.0 mph /  9.7 km/h 51 % 0.00 in /  0 mm
12:26 54.9 °F /  12.7 °C 36.6 °F /  2.6 °C 29.75 in /  1007.3 hPa South 3.2 mph /  5.1 km/h 6.9 mph /  11.1 km/h 50 % 0.00 in /  0 mm
12:31 55.1 °F /  12.8 °C 37.3 °F /  2.9 °C 29.75 in /  1007.3 hPa SSW 5.0 mph /  8 km/h 9.0 mph /  14.5 km/h 51 % 0.00 in /  0 mm
12:36 55.2 °F /  12.9 °C 37.9 °F /  3.3 °C 29.75 in /  1007.3 hPa SW 1.0 mph /  1.6 km/h 3.0 mph /  4.8 km/h 52 % 0.00 in /  0 mm
12:41 55.3 °F /  12.9 °C 37.5 °F /  3.1 °C 29.74 in /  1007 hPa SSW 6.0 mph /  9.7 km/h 12.0 mph /  19.3 km/h 51 % 0.00 in /  0 mm
12:46 55.4 °F /  13 °C 37.6 °F /  3.1 °C 29.74 in /  1007 hPa SSW 3.0 mph /  4.8 km/h 9.0 mph /  14.5 km/h 51 % 0.00 in /  0 mm
12:51 55.5 °F /  13.1 °C 37.1 °F /  2.8 °C 29.74 in /  1007 hPa SSW 3.0 mph /  4.8 km/h 8.0 mph /  12.9 km/h 50 % 0.00 in /  0 mm
12:56 55.6 °F /  13.1 °C 37.7 °F /  3.2 °C 29.73 in /  1006.7 hPa SW 5.0 mph /  8 km/h 8.0 mph /  12.9 km/h 51 % 0.00 in /  0 mm
13:01 55.7 °F /  13.2 °C 37.8 °F /  3.2 °C 29.73 in /  1006.7 hPa SW 4.9 mph /  7.9 km/h 10.4 mph /  16.7 km/h 51 % 0.00 in /  0 mm
13:06 55.8 °F /  13.2 °C 37.9 °F /  3.3 °C 29.72 in /  1006.3 hPa South 3.1 mph /  5 km/h 5.8 mph /  9.3 km/h 51 % 0.00 in /  0 mm
13:11 55.9 °F /  13.3 °C 38.0 °F /  3.3 °C 29.72 in /  1006.3 hPa SW 1.5 mph /  2.4 km/h 3.5 mph /  5.6 km/h 51 % 0.00 in /  0 mm
13:16 56.0 °F /  13.3 °C 38.1 °F /  3.4 °C 29.72 in /  1006.3 hPa SE 2.6 mph /  4.2 km/h 8.1 mph /  13 km/h 51 % 0.00 in /  0 mm
13:21 56.1 °F /  13.4 °C 38.7 °F /  3.7 °C 29.71 in /  1006 hPa South 0.8 mph /  1.3 km/h 6.9 mph /  11.1 km/h 52 % 0.00 in /  0 mm
13:26 56.3 °F /  13.5 °C 39.4 °F /  4.1 °C 29.71 in /  1006 hPa SSW 2.6 mph /  4.2 km/h 4.6 mph /  7.4 km/h 53 % 0.00 in /  0 mm
13:31 56.4 °F /  13.6 °C 39.0 °F /  3.9 °C 29.70 in /  1005.6 hPa SSW 1.6 mph /  2.6 km/h 17.3 mph /  27.8 km/h 52 % 0.00 in /  0 mm
13:36 56.6 °F /  13.7 °C 39.2 °F /  4 °C 29.70 in /  1005.6 hPa South 4.0 mph /  6.4 km/h 6.9 mph /  11.1 km/h 52 % 0.00 in /  0 mm
13:41 56.9 °F /  13.8 °C 39.4 °F /  4.1 °C 29.71 in /  1006 hPa SW 5.5 mph /  8.9 km/h 9.2 mph /  14.8 km/h 52 % 0.00 in /  0 mm
13:46 57.2 °F /  14 °C 40.2 °F /  4.6 °C 29.71 in /  1006 hPa SSW 4.0 mph /  6.4 km/h 6.0 mph /  9.7 km/h 53 % 0.00 in /  0 mm
13:51 57.5 °F /  14.2 °C 40.5 °F /  4.7 °C 29.71 in /  1006 hPa WSW 2.9 mph /  4.7 km/h 6.9 mph /  11.1 km/h 53 % 0.00 in /  0 mm
13:54 57.5 °F /  14.2 °C 40.5 °F /  4.7 °C 29.71 in /  1006 hPa SSW 3.3 mph /  5.3 km/h 6.0 mph /  9.7 km/h 53 % 0.00 in /  0 mm
13:59 57.6 °F /  14.2 °C 40.6 °F /  4.8 °C 29.71 in /  1006 hPa South 1.9 mph /  3.1 km/h 3.5 mph /  5.6 km/h 53 % 0.00 in /  0 mm
14:04 57.7 °F /  14.3 °C 40.7 °F /  4.8 °C 29.71 in /  1006 hPa SSW 2.5 mph /  4 km/h 4.6 mph /  7.4 km/h 53 % 0.00 in /  0 mm
14:07 57.7 °F /  14.3 °C 41.2 °F /  5.1 °C 29.71 in /  1006 hPa SW 3.7 mph /  6 km/h 6.0 mph /  9.7 km/h 54 % 0.00 in /  0 mm
14:12 57.6 °F /  14.2 °C 41.1 °F /  5.1 °C 29.71 in /  1006 hPa SW 0.4 mph /  0.6 km/h 2.3 mph /  3.7 km/h 54 % 0.00 in /  0 mm
14:22 57.3 °F /  14.1 °C 40.8 °F /  4.9 °C 29.70 in /  1005.6 hPa SW 6.6 mph /  10.6 km/h 10.4 mph /  16.7 km/h 54 % 0.00 in /  0 mm
14:27 57.1 °F /  13.9 °C 41.1 °F /  5.1 °C 29.70 in /  1005.6 hPa WSW 3.1 mph /  5 km/h 6.9 mph /  11.1 km/h 55 % 0.00 in /  0 mm
14:32 56.8 °F /  13.8 °C 41.3 °F /  5.2 °C 29.70 in /  1005.6 hPa WSW 6.1 mph /  9.8 km/h 9.2 mph /  14.8 km/h 56 % 0.00 in /  0 mm
14:38 56.6 °F /  13.7 °C 41.1 °F /  5.1 °C 29.70 in /  1005.6 hPa SSW 2.0 mph /  3.2 km/h 3.5 mph /  5.6 km/h 56 % 0.00 in /  0 mm
14:43 56.4 °F /  13.6 °C 41.3 °F /  5.2 °C 29.70 in /  1005.6 hPa SSW 3.1 mph /  5 km/h 6.0 mph /  9.7 km/h 57 % 0.00 in /  0 mm
14:48 56.3 °F /  13.5 °C 41.3 °F /  5.2 °C 29.70 in /  1005.6 hPa SSW 5.8 mph /  9.3 km/h 8.1 mph /  13 km/h 57 % 0.00 in /  0 mm
14:53 56.1 °F /  13.4 °C 41.5 °F /  5.3 °C 29.70 in /  1005.6 hPa WNW 2.4 mph /  3.9 km/h 5.0 mph /  8 km/h 58 % 0.00 in /  0 mm
14:58 56.0 °F /  13.3 °C 41.9 °F /  5.5 °C 29.70 in /  1005.6 hPa SSW 3.4 mph /  5.5 km/h 4.0 mph /  6.4 km/h 59 % 0.00 in /  0 mm
15:03 55.8 °F /  13.2 °C 41.7 °F /  5.4 °C 29.70 in /  1005.6 hPa SW 3.0 mph /  4.8 km/h 6.9 mph /  11.1 km/h 59 % 0.00 in /  0 mm
15:08 55.7 °F /  13.2 °C 41.6 °F /  5.3 °C 29.70 in /  1005.6 hPa SW 2.7 mph /  4.3 km/h 5.8 mph /  9.3 km/h 59 % 0.00 in /  0 mm
15:13 55.5 °F /  13.1 °C 41.4 °F /  5.2 °C 29.70 in /  1005.6 hPa SSW 3.1 mph /  5 km/h 4.6 mph /  7.4 km/h 59 % 0.00 in /  0 mm
15:18 55.4 °F /  13 °C 41.7 °F /  5.4 °C 29.70 in /  1005.6 hPa SW 1.0 mph /  1.6 km/h 3.5 mph /  5.6 km/h 60 % 0.00 in /  0 mm
15:23 55.2 °F /  12.9 °C 41.5 °F /  5.3 °C 29.70 in /  1005.6 hPa WSW 1.2 mph /  1.9 km/h 3.0 mph /  4.8 km/h 60 % 0.00 in /  0 mm
15:28 55.1 °F /  12.8 °C 41.5 °F /  5.3 °C 29.70 in /  1005.6 hPa WSW 2.6 mph /  4.2 km/h 6.9 mph /  11.1 km/h 60 % 0.00 in /  0 mm
15:33 55.0 °F /  12.8 °C 41.4 °F /  5.2 °C 29.70 in /  1005.6 hPa SW 4.5 mph /  7.2 km/h 6.9 mph /  11.1 km/h 60 % 0.00 in /  0 mm
15:38 54.8 °F /  12.7 °C 41.6 °F /  5.3 °C 29.70 in /  1005.6 hPa SSW 3.1 mph /  5 km/h 5.0 mph /  8 km/h 61 % 0.00 in /  0 mm
15:43 54.6 °F /  12.6 °C 41.4 °F /  5.2 °C 29.70 in /  1005.6 hPa SSW 1.2 mph /  1.9 km/h 7.0 mph /  11.3 km/h 61 % 0.00 in /  0 mm
15:48 54.5 °F /  12.5 °C 41.3 °F /  5.2 °C 29.70 in /  1005.6 hPa SSW 0.7 mph /  1.1 km/h 2.3 mph /  3.7 km/h 61 % 0.00 in /  0 mm
15:53 54.3 °F /  12.4 °C 41.6 °F /  5.3 °C 29.70 in /  1005.6 hPa SSW 1.5 mph /  2.4 km/h 3.5 mph /  5.6 km/h 62 % 0.00 in /  0 mm
15:58 54.2 °F /  12.3 °C 41.5 °F /  5.3 °C 29.69 in /  1005.3 hPa SSW 0.4 mph /  0.6 km/h 3.5 mph /  5.6 km/h 62 % 0.00 in /  0 mm
16:03 54.0 °F /  12.2 °C 41.7 °F /  5.4 °C 29.69 in /  1005.3 hPa SSW 0.8 mph /  1.3 km/h 2.0 mph /  3.2 km/h 63 % 0.00 in /  0 mm
16:08 53.8 °F /  12.1 °C 41.9 °F /  5.5 °C 29.69 in /  1005.3 hPa SSW 0.4 mph /  0.6 km/h 2.3 mph /  3.7 km/h 64 % 0.00 in /  0 mm
16:13 53.5 °F /  11.9 °C 41.6 °F /  5.3 °C 29.69 in /  1005.3 hPa SSW 0.4 mph /  0.6 km/h 3.5 mph /  5.6 km/h 64 % 0.00 in /  0 mm
16:18 53.3 °F /  11.8 °C 41.8 °F /  5.4 °C 29.69 in /  1005.3 hPa WSW 0.9 mph /  1.4 km/h 2.3 mph /  3.7 km/h 65 % 0.00 in /  0 mm
16:23 53.1 °F /  11.7 °C 41.6 °F /  5.3 °C 29.69 in /  1005.3 hPa WSW 0.4 mph /  0.6 km/h 3.5 mph /  5.6 km/h 65 % 0.00 in /  0 mm
16:28 53.0 °F /  11.7 °C 41.5 °F /  5.3 °C 29.69 in /  1005.3 hPa WSW 0.8 mph /  1.3 km/h 3.5 mph /  5.6 km/h 65 % 0.00 in /  0 mm
16:33 52.8 °F /  11.6 °C 41.7 °F /  5.4 °C 29.68 in /  1005 hPa SW 0.7 mph /  1.1 km/h 3.5 mph /  5.6 km/h 66 % 0.00 in /  0 mm
16:38 52.6 °F /  11.4 °C 41.9 °F /  5.5 °C 29.68 in /  1005 hPa Calm     67 % 0.00 in /  0 mm
16:43 52.3 °F /  11.3 °C 41.7 °F /  5.4 °C 29.69 in /  1005.3 hPa SSW 1.5 mph /  2.4 km/h 2.3 mph /  3.7 km/h 67 % 0.00 in /  0 mm
16:48 52.2 °F /  11.2 °C 42.0 °F /  5.6 °C 29.69 in /  1005.3 hPa SSW 0.6 mph /  1 km/h 3.5 mph /  5.6 km/h 68 % 0.00 in /  0 mm
16:53 51.9 °F /  11.1 °C 41.7 °F /  5.4 °C 29.69 in /  1005.3 hPa SSW 0.6 mph /  1 km/h 3.5 mph /  5.6 km/h 68 % 0.00 in /  0 mm
16:58 51.8 °F /  11 °C 41.9 °F /  5.5 °C 29.69 in /  1005.3 hPa SSW 0.2 mph /  0.3 km/h 1.2 mph /  1.9 km/h 69 % 0.00 in /  0 mm
17:03 51.6 °F /  10.9 °C 42.1 °F /  5.6 °C 29.69 in /  1005.3 hPa SSW 0.4 mph /  0.6 km/h 2.3 mph /  3.7 km/h 70 % 0.00 in /  0 mm
17:13 51.2 °F /  10.7 °C 42.5 °F /  5.8 °C 29.69 in /  1005.3 hPa SSW 1.1 mph /  1.8 km/h 2.3 mph /  3.7 km/h 72 % 0.00 in /  0 mm
17:19 51.0 °F /  10.6 °C 42.3 °F /  5.7 °C 29.69 in /  1005.3 hPa SSW 1.4 mph /  2.3 km/h 3.5 mph /  5.6 km/h 72 % 0.00 in /  0 mm
17:24 50.9 °F /  10.5 °C 42.6 °F /  5.9 °C 29.69 in /  1005.3 hPa SSW 0.4 mph /  0.6 km/h 3.5 mph /  5.6 km/h 73 % 0.00 in /  0 mm
17:29 50.8 °F /  10.4 °C 43.2 °F /  6.2 °C 29.69 in /  1005.3 hPa WSW 0.9 mph /  1.4 km/h 2.3 mph /  3.7 km/h 75 % 0.00 in /  0 mm
17:34 50.8 °F /  10.4 °C 43.2 °F /  6.2 °C 29.70 in /  1005.6 hPa SW 0.9 mph /  1.4 km/h 3.5 mph /  5.6 km/h 75 % 0.00 in /  0 mm
17:39 50.7 °F /  10.4 °C 43.4 °F /  6.3 °C 29.70 in /  1005.6 hPa Calm   1.2 mph /  1.9 km/h 76 % 0.00 in /  0 mm
17:44 50.6 °F /  10.3 °C 43.7 °F /  6.5 °C 29.70 in /  1005.6 hPa SSW 2.2 mph /  3.5 km/h 4.0 mph /  6.4 km/h 77 % 0.00 in /  0 mm
17:49 50.6 °F /  10.3 °C 43.7 °F /  6.5 °C 29.70 in /  1005.6 hPa SW 1.4 mph /  2.3 km/h 3.5 mph /  5.6 km/h 77 % 0.00 in /  0 mm
17:54 50.7 °F /  10.4 °C 44.1 °F /  6.7 °C 29.70 in /  1005.6 hPa South 1.4 mph /  2.3 km/h 3.5 mph /  5.6 km/h 78 % 0.00 in /  0 mm
17:59 50.7 °F /  10.4 °C 44.1 °F /  6.7 °C 29.70 in /  1005.6 hPa SW 2.6 mph /  4.2 km/h 4.6 mph /  7.4 km/h 78 % 0.00 in /  0 mm
18:04 50.7 °F /  10.4 °C 44.1 °F /  6.7 °C 29.70 in /  1005.6 hPa WSW 2.1 mph /  3.4 km/h 4.0 mph /  6.4 km/h 78 % 0.00 in /  0 mm
18:09 50.7 °F /  10.4 °C 44.1 °F /  6.7 °C 29.70 in /  1005.6 hPa WSW 0.7 mph /  1.1 km/h 2.3 mph /  3.7 km/h 78 % 0.00 in /  0 mm
18:14 50.7 °F /  10.4 °C 44.1 °F /  6.7 °C 29.70 in /  1005.6 hPa SSW 2.4 mph /  3.9 km/h 3.5 mph /  5.6 km/h 78 % 0.00 in /  0 mm
18:19 50.8 °F /  10.4 °C 44.2 °F /  6.8 °C 29.70 in /  1005.6 hPa SSW 3.5 mph /  5.6 km/h 4.6 mph /  7.4 km/h 78 % 0.00 in /  0 mm
18:24 50.8 °F /  10.4 °C 44.2 °F /  6.8 °C 29.70 in /  1005.6 hPa SSW 1.5 mph /  2.4 km/h 3.0 mph /  4.8 km/h 78 % 0.00 in /  0 mm
18:29 50.8 °F /  10.4 °C 44.2 °F /  6.8 °C 29.71 in /  1006 hPa SW 3.4 mph /  5.5 km/h 4.6 mph /  7.4 km/h 78 % 0.00 in /  0 mm
18:39 50.9 °F /  10.5 °C 44.3 °F /  6.8 °C 29.70 in /  1005.6 hPa SW 1.7 mph /  2.7 km/h 3.5 mph /  5.6 km/h 78 % 0.00 in /  0 mm
18:44 50.9 °F /  10.5 °C 44.3 °F /  6.8 °C 29.70 in /  1005.6 hPa SW 1.1 mph /  1.8 km/h 3.5 mph /  5.6 km/h 78 % 0.00 in /  0 mm
18:49 51.0 °F /  10.6 °C 44.4 °F /  6.9 °C 29.70 in /  1005.6 hPa SW 1.7 mph /  2.7 km/h 3.5 mph /  5.6 km/h 78 % 0.00 in /  0 mm
18:54 51.0 °F /  10.6 °C 44.4 °F /  6.9 °C 29.71 in /  1006 hPa West 1.1 mph /  1.8 km/h 3.5 mph /  5.6 km/h 78 % 0.00 in /  0 mm
18:59 51.1 °F /  10.6 °C 44.1 °F /  6.7 °C 29.70 in /  1005.6 hPa SW 1.4 mph /  2.3 km/h 3.5 mph /  5.6 km/h 77 % 0.00 in /  0 mm
19:04 51.1 °F /  10.6 °C 44.1 °F /  6.7 °C 29.71 in /  1006 hPa Calm     77 % 0.00 in /  0 mm
19:09 51.2 °F /  10.7 °C 44.2 °F /  6.8 °C 29.71 in /  1006 hPa WSW 0.7 mph /  1.1 km/h 2.3 mph /  3.7 km/h 77 % 0.00 in /  0 mm
19:14 51.2 °F /  10.7 °C 44.2 °F /  6.8 °C 29.71 in /  1006 hPa WSW 0.7 mph /  1.1 km/h 3.5 mph /  5.6 km/h 77 % 0.00 in /  0 mm
19:19 51.2 °F /  10.7 °C 44.2 °F /  6.8 °C 29.71 in /  1006 hPa WSW 1.3 mph /  2.1 km/h 3.5 mph /  5.6 km/h 77 % 0.00 in /  0 mm
19:24 51.2 °F /  10.7 °C 43.9 °F /  6.6 °C 29.71 in /  1006 hPa SW 0.1 mph /  0.2 km/h 2.3 mph /  3.7 km/h 76 % 0.00 in /  0 mm
19:29 51.2 °F /  10.7 °C 43.9 °F /  6.6 °C 29.71 in /  1006 hPa WSW 0.5 mph /  0.8 km/h 2.3 mph /  3.7 km/h 76 % 0.00 in /  0 mm
19:34 51.2 °F /  10.7 °C 43.9 °F /  6.6 °C 29.71 in /  1006 hPa WSW 0.6 mph /  1 km/h 3.5 mph /  5.6 km/h 76 % 0.00 in /  0 mm
19:39 51.2 °F /  10.7 °C 43.9 °F /  6.6 °C 29.72 in /  1006.3 hPa WSW 0.3 mph /  0.5 km/h 1.2 mph /  1.9 km/h 76 % 0.00 in /  0 mm
19:44 51.2 °F /  10.7 °C 43.9 °F /  6.6 °C 29.72 in /  1006.3 hPa WSW 0.2 mph /  0.3 km/h 1.2 mph /  1.9 km/h 76 % 0.00 in /  0 mm
19:49 51.2 °F /  10.7 °C 43.9 °F /  6.6 °C 29.72 in /  1006.3 hPa WSW 0.2 mph /  0.3 km/h   76 % 0.00 in /  0 mm
19:54 51.1 °F /  10.6 °C 43.8 °F /  6.6 °C 29.72 in /  1006.3 hPa WSW 0.8 mph /  1.3 km/h 1.2 mph /  1.9 km/h 76 % 0.00 in /  0 mm
19:59 51.1 °F /  10.6 °C 43.4 °F /  6.3 °C 29.72 in /  1006.3 hPa SW 2.2 mph /  3.5 km/h 4.0 mph /  6.4 km/h 75 % 0.00 in /  0 mm
20:04 51.0 °F /  10.6 °C 43.4 °F /  6.3 °C 29.72 in /  1006.3 hPa SW 0.8 mph /  1.3 km/h 3.5 mph /  5.6 km/h 75 % 0.00 in /  0 mm
20:09 50.9 °F /  10.5 °C 43.3 °F /  6.3 °C 29.71 in /  1006 hPa SW 0.8 mph /  1.3 km/h 2.3 mph /  3.7 km/h 75 % 0.00 in /  0 mm
20:14 50.8 °F /  10.4 °C 43.2 °F /  6.2 °C 29.71 in /  1006 hPa SW 2.0 mph /  3.2 km/h 3.5 mph /  5.6 km/h 75 % 0.00 in /  0 mm
20:19 50.7 °F /  10.4 °C 43.1 °F /  6.2 °C 29.72 in /  1006.3 hPa SSW 2.5 mph /  4 km/h 4.0 mph /  6.4 km/h 75 % 0.00 in /  0 mm
20:25 50.6 °F /  10.3 °C 42.6 °F /  5.9 °C 29.72 in /  1006.3 hPa SW 1.4 mph /  2.3 km/h 2.3 mph /  3.7 km/h 74 % 0.00 in /  0 mm
20:30 50.5 °F /  10.3 °C 42.5 °F /  5.8 °C 29.72 in /  1006.3 hPa SW 0.8 mph /  1.3 km/h 1.2 mph /  1.9 km/h 74 % 0.00 in /  0 mm
20:35 50.3 °F /  10.2 °C 42.3 °F /  5.7 °C 29.72 in /  1006.3 hPa SW 0.7 mph /  1.1 km/h 2.3 mph /  3.7 km/h 74 % 0.00 in /  0 mm
20:40 50.1 °F /  10.1 °C 42.1 °F /  5.6 °C 29.72 in /  1006.3 hPa SW 0.2 mph /  0.3 km/h 1.2 mph /  1.9 km/h 74 % 0.00 in /  0 mm
20:45 50.0 °F /  10 °C 42.0 °F /  5.6 °C 29.72 in /  1006.3 hPa SW 1.5 mph /  2.4 km/h 3.5 mph /  5.6 km/h 74 % 0.00 in /  0 mm
20:50 49.8 °F /  9.9 °C 41.8 °F /  5.4 °C 29.72 in /  1006.3 hPa SW 1.6 mph /  2.6 km/h 2.3 mph /  3.7 km/h 74 % 0.00 in /  0 mm
20:55 49.7 °F /  9.8 °C 41.7 °F /  5.4 °C 29.72 in /  1006.3 hPa WSW 1.1 mph /  1.8 km/h 5.0 mph /  8 km/h 74 % 0.00 in /  0 mm
21:00 49.6 °F /  9.8 °C 41.3 °F /  5.2 °C 29.72 in /  1006.3 hPa WSW 1.7 mph /  2.7 km/h 3.0 mph /  4.8 km/h 73 % 0.00 in /  0 mm
21:05 49.5 °F /  9.7 °C 40.8 °F /  4.9 °C 29.72 in /  1006.3 hPa WSW 1.5 mph /  2.4 km/h 3.5 mph /  5.6 km/h 72 % 0.00 in /  0 mm
21:10 49.5 °F /  9.7 °C 40.8 °F /  4.9 °C 29.72 in /  1006.3 hPa SW 1.9 mph /  3.1 km/h 3.5 mph /  5.6 km/h 72 % 0.00 in /  0 mm
21:15 49.5 °F /  9.7 °C 40.8 °F /  4.9 °C 29.72 in /  1006.3 hPa SW 0.4 mph /  0.6 km/h 3.5 mph /  5.6 km/h 72 % 0.00 in /  0 mm
21:20 49.5 °F /  9.7 °C 40.8 °F /  4.9 °C 29.72 in /  1006.3 hPa SW 1.6 mph /  2.6 km/h 3.5 mph /  5.6 km/h 72 % 0.00 in /  0 mm
21:25 49.5 °F /  9.7 °C 40.8 °F /  4.9 °C 29.72 in /  1006.3 hPa WSW 0.8 mph /  1.3 km/h 3.5 mph /  5.6 km/h 72 % 0.00 in /  0 mm
21:30 49.4 °F /  9.7 °C 40.4 °F /  4.7 °C 29.72 in /  1006.3 hPa West 0.3 mph /  0.5 km/h 2.0 mph /  3.2 km/h 71 % 0.00 in /  0 mm
21:35 49.4 °F /  9.7 °C 40.4 °F /  4.7 °C 29.72 in /  1006.3 hPa SW 2.5 mph /  4 km/h 4.6 mph /  7.4 km/h 71 % 0.00 in /  0 mm
21:40 49.4 °F /  9.7 °C 40.4 °F /  4.7 °C 29.73 in /  1006.7 hPa WSW 1.6 mph /  2.6 km/h 4.0 mph /  6.4 km/h 71 % 0.00 in /  0 mm
21:45 49.5 °F /  9.7 °C 40.5 °F /  4.7 °C 29.72 in /  1006.3 hPa WSW 0.6 mph /  1 km/h 2.3 mph /  3.7 km/h 71 % 0.00 in /  0 mm
21:50 49.5 °F /  9.7 °C 40.5 °F /  4.7 °C 29.72 in /  1006.3 hPa Calm   4.6 mph /  7.4 km/h 71 % 0.00 in /  0 mm
21:55 49.5 °F /  9.7 °C 40.5 °F /  4.7 °C 29.72 in /  1006.3 hPa WSW 0.8 mph /  1.3 km/h 4.0 mph /  6.4 km/h 71 % 0.00 in /  0 mm
22:00 49.4 °F /  9.7 °C 40.4 °F /  4.7 °C 29.72 in /  1006.3 hPa SW 1.2 mph /  1.9 km/h 3.5 mph /  5.6 km/h 71 % 0.00 in /  0 mm
22:05 49.4 °F /  9.7 °C 40.4 °F /  4.7 °C 29.72 in /  1006.3 hPa SW 0.1 mph /  0.2 km/h 1.2 mph /  1.9 km/h 71 % 0.00 in /  0 mm
22:11 49.4 °F /  9.7 °C 40.4 °F /  4.7 °C 29.72 in /  1006.3 hPa SSW 0.8 mph /  1.3 km/h 3.5 mph /  5.6 km/h 71 % 0.00 in /  0 mm
22:16 49.4 °F /  9.7 °C 40.4 °F /  4.7 °C 29.72 in /  1006.3 hPa SW 0.1 mph /  0.2 km/h 2.0 mph /  3.2 km/h 71 % 0.00 in /  0 mm
22:21 49.4 °F /  9.7 °C 40.4 °F /  4.7 °C 29.72 in /  1006.3 hPa SSW 0.9 mph /  1.4 km/h 2.3 mph /  3.7 km/h 71 % 0.00 in /  0 mm
22:26 49.4 °F /  9.7 °C 40.0 °F /  4.4 °C 29.72 in /  1006.3 hPa SSW 0.7 mph /  1.1 km/h 2.3 mph /  3.7 km/h 70 % 0.00 in /  0 mm
22:31 49.5 °F /  9.7 °C 40.1 °F /  4.5 °C 29.73 in /  1006.7 hPa SW 1.1 mph /  1.8 km/h 3.5 mph /  5.6 km/h 70 % 0.00 in /  0 mm
22:36 49.5 °F /  9.7 °C 39.7 °F /  4.3 °C 29.73 in /  1006.7 hPa WSW 0.7 mph /  1.1 km/h 2.3 mph /  3.7 km/h 69 % 0.00 in /  0 mm
22:41 49.5 °F /  9.7 °C 39.7 °F /  4.3 °C 29.73 in /  1006.7 hPa Calm   2.3 mph /  3.7 km/h 69 % 0.00 in /  0 mm
22:46 49.5 °F /  9.7 °C 39.7 °F /  4.3 °C 29.73 in /  1006.7 hPa SSW 0.6 mph /  1 km/h 3.5 mph /  5.6 km/h 69 % 0.00 in /  0 mm
22:51 49.5 °F /  9.7 °C 39.4 °F /  4.1 °C 29.73 in /  1006.7 hPa West 2.3 mph /  3.7 km/h 3.5 mph /  5.6 km/h 68 % 0.00 in /  0 mm
22:56 49.5 °F /  9.7 °C 39.4 °F /  4.1 °C 29.73 in /  1006.7 hPa WSW 0.4 mph /  0.6 km/h 3.5 mph /  5.6 km/h 68 % 0.00 in /  0 mm
23:01 49.5 °F /  9.7 °C 39.4 °F /  4.1 °C 29.73 in /  1006.7 hPa WSW 1.5 mph /  2.4 km/h 3.5 mph /  5.6 km/h 68 % 0.00 in /  0 mm
23:06 49.5 °F /  9.7 °C 39.4 °F /  4.1 °C 29.73 in /  1006.7 hPa West 3.0 mph /  4.8 km/h 4.6 mph /  7.4 km/h 68 % 0.00 in /  0 mm
23:11 49.5 °F /  9.7 °C 39.0 °F /  3.9 °C 29.73 in /  1006.7 hPa WSW 4.5 mph /  7.2 km/h 10.4 mph /  16.7 km/h 67 % 0.00 in /  0 mm
23:16 49.6 °F /  9.8 °C 39.1 °F /  3.9 °C 29.73 in /  1006.7 hPa WSW 3.0 mph /  4.8 km/h 8.1 mph /  13 km/h 67 % 0.00 in /  0 mm
23:21 49.6 °F /  9.8 °C 39.5 °F /  4.2 °C 29.73 in /  1006.7 hPa West 3.0 mph /  4.8 km/h 3.5 mph /  5.6 km/h 68 % 0.00 in /  0 mm
23:26 49.8 °F /  9.9 °C 39.3 °F /  4.1 °C 29.74 in /  1007 hPa West 1.0 mph /  1.6 km/h 3.5 mph /  5.6 km/h 67 % 0.00 in /  0 mm
23:31 49.9 °F /  9.9 °C 39.8 °F /  4.3 °C 29.74 in /  1007 hPa West 1.5 mph /  2.4 km/h 3.5 mph /  5.6 km/h 68 % 0.00 in /  0 mm
23:36 50.0 °F /  10 °C 39.8 °F /  4.3 °C 29.74 in /  1007 hPa SW 3.5 mph /  5.6 km/h 4.6 mph /  7.4 km/h 68 % 0.00 in /  0 mm
23:41 50.2 °F /  10.1 °C 40.0 °F /  4.4 °C 29.74 in /  1007 hPa WSW 1.0 mph /  1.6 km/h 3.5 mph /  5.6 km/h 68 % 0.00 in /  0 mm
23:46 50.3 °F /  10.2 °C 40.1 °F /  4.5 °C 29.74 in /  1007 hPa WSW 4.3 mph /  6.9 km/h 9.0 mph /  14.5 km/h 68 % 0.00 in /  0 mm
23:51 50.4 °F /  10.2 °C 40.2 °F /  4.6 °C 29.74 in /  1007 hPa West 3.0 mph /  4.8 km/h 5.8 mph /  9.3 km/h 68 % 0.00 in /  0 mm
23:56 50.5 °F /  10.3 °C 39.9 °F /  4.4 °C 29.74 in /  1007 hPa West 2.1 mph /  3.4 km/h 5.8 mph /  9.3 km/h 67 % 0.00 in /  0 mm
Crab Meadow Weather
Compliments of Weather Underground - 3 mb

Script developed by  Jim McMurry - jmcmurry@mwt.net Adapted for the template by  Wim van der Kuil - Leuven-Template.eu

Extremes: The most widespread U.S. cold wave was in February of 1899. It was so cold that the Mississippi River froze over its entire length, with ice as thick as two inches even in New Orleans.